This is the latest recevied weather packets stored in our database for station/object 9M2SES-13. If no packets are shown the sender has not sent any weather packets the latest 10 day(s).
| Time | Temp. | Humidity | Pressure | Rain* | Wind** | Luminosity | Snow |
|---|---|---|---|---|---|---|---|
| 1778239821 | 26.67° C | 95% | - | 0 mm | - | 0 W/m² | - |
| 1778239220 | 25.56° C | 95% | - | 0 mm | - | 0 W/m² | - |
| 1778236817 | 26.67° C | 95% | - | 0 mm | - | 0 W/m² | - |
| 1778234413 | 26.67° C | 95% | - | 0 mm | - | 0 W/m² | - |
| 1778232610 | 27.78° C | 91% | - | 0 mm | - | 0 W/m² | - |
| 1778231408 | 26.67° C | 95% | - | 0 mm | - | 0 W/m² | - |
| 1778230206 | 25.56° C | 95% | - | 1.78 mm | - | 0 W/m² | - |
| 1778229005 | 25° C | 95% | - | 1.78 mm | - | 0 W/m² | - |
| 1778228404 | 25.56° C | 95% | - | 1.78 mm | - | 0 W/m² | - |
| 1778227202 | 26.67° C | 95% | - | 0.76 mm | - | 0 W/m² | - |
| 1778226000 | 25.56° C | 95% | - | 0.76 mm | - | 0 W/m² | - |
| 1778224798 | 25.56° C | 95% | - | 0.76 mm | - | 0 W/m² | - |
| 1778222995 | 26.67° C | 95% | - | 0 mm | - | 0 W/m² | - |
| 1778222394 | 26.67° C | 95% | - | 0 mm | - | 0 W/m² | - |
| 1778221192 | 26.67° C | 95% | - | 0 mm | - | 0 W/m² | - |
| 1778219991 | 25.56° C | 95% | - | 1.27 mm | - | 0 W/m² | - |
| 1778218189 | 25.56° C | 95% | - | 1.27 mm | - | 0 W/m² | - |
| 1778217588 | 26.67° C | 95% | - | 1.27 mm | - | 0 W/m² | - |
| 1778216386 | 26.67° C | 95% | - | 2.54 mm | - | 0 W/m² | - |
| 1778213983 | 25.56° C | 95% | - | 2.54 mm | - | 0 W/m² | - |
| 1778212781 | 25.56° C | 95% | - | 0 mm | - | 0 W/m² | - |
| 1778211579 | 25.56° C | 95% | - | 0 mm | - | 0 W/m² | - |
| 1778210377 | 26.67° C | 95% | - | 0 mm | - | 0 W/m² | - |
| 1778209777 | 27.78° C | 95% | - | 0 mm | - | 0 W/m² | - |
| 1778208576 | 30° C | 95% | - | 0 mm | - | 0 W/m² | - |
* Rain latest hour (hover to see other rain measurements)
** Current wind speed in m/s (hover to see current wind gust speed)